Location: Bednik
(45.3500°N, 16.3833°E)
Time: 20:09:39
(UTC+00:00)

Cosmos 1727 Rocket - Pass Details

Date: 08 August 2020
Orbit: 961 x 996 km, 82.9° (Epoch: 21 September)

Event Time Altitude Azimuth Distance (km) Brightness Sun altitude
Rises 19:14:04 0° 349° (N) 3,724 7.8 -10.3°
Reaches altitude 10° 19:16:37 10° 347° (NNW) 2,773 7.1 -10.7°
Maximum altitude 19:22:56 70° 266° (W) 1,056 4.4 -11.6°
Drops below altitude 10° 19:29:13 10° 184° (S) 2,752 6.0 -12.5°
Sets 19:31:44 0° 182° (S) 3,695 6.7 -12.8°
